Time,TemperatureF,DewpointF,PressureIn,WindDirection,WindDirectionDegrees,WindSpeedMPH,WindSpeedGustMPH,Humidity,HourlyPrecipIn,Conditions,Clouds,dailyrainin,SolarRadiationWatts/m^2,SoftwareType,DateUTC
2013-09-02 00:01:00,63.5,57.6,26.41,NNW,336,0.0,1.0,81,0.00,,,0.04,1315,Wunderground v.1.15,2013-09-02 05:01:00,
2013-09-02 00:07:00,63.1,57.5,26.41,NNW,336,0.0,1.0,82,0.00,,,0.04,1308,Wunderground v.1.15,2013-09-02 05:07:00,
2013-09-02 00:13:00,62.7,57.1,26.41,NNW,336,0.0,1.0,82,0.00,,,0.00,1303,Wunderground v.1.15,2013-09-02 05:13:00,
2013-09-02 00:19:00,62.1,56.9,26.41,NNW,336,0.0,1.0,83,0.00,,,0.00,1290,Wunderground v.1.15,2013-09-02 05:19:00,
2013-09-02 00:25:00,61.3,56.4,26.41,NNW,336,1.0,2.0,84,0.00,,,0.00,1281,Wunderground v.1.15,2013-09-02 05:25:00,
2013-09-02 00:31:00,61.2,57.3,26.41,NNW,336,1.0,1.0,87,0.00,,,0.00,1278,Wunderground v.1.15,2013-09-02 05:31:00,
2013-09-02 00:37:00,61.4,57.5,26.41,NNW,336,1.0,2.0,87,0.00,,,0.00,1290,Wunderground v.1.15,2013-09-02 05:37:00,
2013-09-02 00:43:00,61.3,57.1,26.41,NNW,335,1.0,2.0,86,0.00,,,0.00,1287,Wunderground v.1.15,2013-09-02 05:43:00,
2013-09-02 00:48:00,61.1,56.9,26.41,NNW,334,2.0,2.0,86,0.00,,,0.00,1280,Wunderground v.1.15,2013-09-02 05:48:00,
2013-09-02 00:55:00,60.8,56.9,26.41,NNW,335,1.0,2.0,87,0.00,,,0.00,1273,Wunderground v.1.15,2013-09-02 05:55:00,
2013-09-02 01:01:00,60.7,56.8,26.41,NNW,335,0.0,1.0,87,0.00,,,0.00,1273,Wunderground v.1.15,2013-09-02 06:01:00,
2013-09-02 01:07:00,60.5,56.6,26.41,NNW,335,0.0,1.0,87,0.00,,,0.00,1260,Wunderground v.1.15,2013-09-02 06:07:00,
2013-09-02 01:13:00,60.4,56.5,26.41,NNW,334,0.0,1.0,87,0.00,,,0.00,1253,Wunderground v.1.15,2013-09-02 06:13:00,
2013-09-02 01:19:00,60.1,56.2,26.41,NNW,334,0.0,2.0,87,0.00,,,0.00,1257,Wunderground v.1.15,2013-09-02 06:19:00,
2013-09-02 01:25:00,59.8,56.2,26.41,NNW,335,0.0,2.0,88,0.00,,,0.00,1252,Wunderground v.1.15,2013-09-02 06:25:00,
2013-09-02 01:31:00,59.4,55.8,26.41,NNW,334,0.0,1.0,88,0.00,,,0.00,1253,Wunderground v.1.15,2013-09-02 06:31:00,
2013-09-02 01:37:00,59.0,55.8,26.41,NNW,335,1.0,1.0,89,0.00,,,0.00,1243,Wunderground v.1.15,2013-09-02 06:37:00,
2013-09-02 01:43:00,58.6,55.4,26.41,NNW,334,1.0,2.0,89,0.00,,,0.00,1239,Wunderground v.1.15,2013-09-02 06:43:00,
2013-09-02 01:49:00,58.4,55.5,31.40,NNW,334,1.0,2.0,90,0.00,,,0.00,1225,Wunderground v.1.15,2013-09-02 06:49:00,
2013-09-02 01:55:00,58.4,55.8,31.40,NNW,334,1.0,2.0,91,0.00,,,0.00,1227,Wunderground v.1.15,2013-09-02 06:55:00,
2013-09-02 02:00:00,58.6,56.3,31.40,NNW,334,1.0,3.0,92,0.00,,,0.00,1225,Wunderground v.1.15,2013-09-02 07:00:00,
2013-09-02 02:07:00,59.1,56.8,31.40,NNW,333,1.0,3.0,92,0.00,,,0.00,1243,Wunderground v.1.15,2013-09-02 07:07:00,
2013-09-02 02:13:00,59.2,56.6,31.40,NNW,332,2.0,3.0,91,0.00,,,0.00,1255,Wunderground v.1.15,2013-09-02 07:13:00,
2013-09-02 02:18:00,59.2,56.6,31.40,NNW,331,2.0,2.0,91,0.00,,,0.00,1252,Wunderground v.1.15,2013-09-02 07:18:00,
2013-09-02 02:25:00,59.1,56.5,31.40,NNW,329,2.0,3.0,91,0.00,,,0.00,1243,Wunderground v.1.15,2013-09-02 07:25:00,
2013-09-02 02:31:00,59.0,56.4,31.40,NNW,327,2.0,2.0,91,0.00,,,0.00,1246,Wunderground v.1.15,2013-09-02 07:31:00,
2013-09-02 02:37:00,59.0,56.4,31.40,NW,323,2.0,3.0,91,0.00,,,0.00,1245,Wunderground v.1.15,2013-09-02 07:37:00,
2013-09-02 02:43:00,58.9,56.3,31.40,NW,323,2.0,2.0,91,0.00,,,0.00,1248,Wunderground v.1.15,2013-09-02 07:43:00,
2013-09-02 02:49:00,59.0,56.4,31.40,NW,322,2.0,2.0,91,0.00,,,0.00,1243,Wunderground v.1.15,2013-09-02 07:49:00,
2013-09-02 02:55:00,59.1,56.5,31.40,NW,322,2.0,3.0,91,0.00,,,0.00,1250,Wunderground v.1.15,2013-09-02 07:55:00,
2013-09-02 03:01:00,59.1,56.5,31.40,NW,321,2.0,3.0,91,0.00,,,0.00,1255,Wunderground v.1.15,2013-09-02 08:01:00,
2013-09-02 03:07:00,59.1,56.5,31.49,NW,321,3.0,3.0,91,0.00,,,0.00,1250,Wunderground v.1.15,2013-09-02 08:07:00,
2013-09-02 03:13:00,59.0,56.4,31.49,NW,320,2.0,3.0,91,0.00,,,0.00,1252,Wunderground v.1.15,2013-09-02 08:13:00,
2013-09-02 03:19:00,59.0,56.4,31.49,NW,319,2.0,3.0,91,0.00,,,0.00,1248,Wunderground v.1.15,2013-09-02 08:19:00,
2013-09-02 03:25:00,59.0,56.4,31.49,NW,320,2.0,3.0,91,0.00,,,0.00,1250,Wunderground v.1.15,2013-09-02 08:25:00,
2013-09-02 03:31:00,59.0,56.4,31.49,NW,320,2.0,2.0,91,0.00,,,0.00,1250,Wunderground v.1.15,2013-09-02 08:31:00,
2013-09-02 03:37:00,59.0,56.1,31.49,NW,320,1.0,2.0,90,0.00,,,0.00,1245,Wunderground v.1.15,2013-09-02 08:37:00,
2013-09-02 03:43:00,59.1,56.5,31.49,NW,320,1.0,2.0,91,0.00,,,0.00,1250,Wunderground v.1.15,2013-09-02 08:43:00,
2013-09-02 03:49:00,59.4,56.8,31.49,NW,320,1.0,1.0,91,0.00,,,0.00,1257,Wunderground v.1.15,2013-09-02 08:49:00,
2013-09-02 03:55:00,59.5,56.9,31.49,NW,319,1.0,1.0,91,0.00,,,0.00,1264,Wunderground v.1.15,2013-09-02 08:55:00,
2013-09-02 04:00:00,59.6,57.0,31.49,NW,319,1.0,4.0,91,0.00,,,0.00,1264,Wunderground v.1.15,2013-09-02 09:00:00,
2013-09-02 04:07:00,59.8,56.9,31.49,NW,320,1.0,4.0,90,0.00,,,0.00,1269,Wunderground v.1.15,2013-09-02 09:07:00,
2013-09-02 04:12:00,59.9,57.0,31.49,NW,320,1.0,4.0,90,0.00,,,0.00,1269,Wunderground v.1.15,2013-09-02 09:12:00,
2013-09-02 04:18:00,60.0,57.1,31.49,NW,319,0.0,0.0,90,0.00,,,0.00,1266,Wunderground v.1.15,2013-09-02 09:18:00,
2013-09-02 04:25:00,60.0,57.1,31.49,NW,319,0.0,0.0,90,0.00,,,0.00,1262,Wunderground v.1.15,2013-09-02 09:25:00,
2013-09-02 04:31:00,60.1,57.2,31.49,NW,319,0.0,0.0,90,0.00,,,0.00,1259,Wunderground v.1.15,2013-09-02 09:31:00,
2013-09-02 04:37:00,59.9,57.0,31.49,NW,319,0.0,2.0,90,0.00,,,0.00,1257,Wunderground v.1.15,2013-09-02 09:37:00,
2013-09-02 04:43:00,59.7,56.8,31.49,NW,319,0.0,1.0,90,0.00,,,0.00,1252,Wunderground v.1.15,2013-09-02 09:43:00,
2013-09-02 04:49:00,59.4,56.5,31.49,NW,320,0.0,0.0,90,0.00,,,0.00,1255,Wunderground v.1.15,2013-09-02 09:49:00,
2013-09-02 04:55:00,59.0,56.1,31.49,NW,319,0.0,0.0,90,0.00,,,0.00,1243,Wunderground v.1.15,2013-09-02 09:55:00,
2013-09-02 05:00:00,58.8,55.9,31.49,NW,319,0.0,4.0,90,0.00,,,0.00,1239,Wunderground v.1.15,2013-09-02 10:00:00,
2013-09-02 05:07:00,58.6,56.0,31.49,NW,320,0.0,4.0,91,0.00,,,0.00,1236,Wunderground v.1.15,2013-09-02 10:07:00,
2013-09-02 05:13:00,58.5,55.9,31.49,NW,319,0.0,4.0,91,0.00,,,0.00,1236,Wunderground v.1.15,2013-09-02 10:13:00,
2013-09-02 05:18:00,58.5,55.9,31.76,NW,320,0.0,0.0,91,0.00,,,0.00,1230,Wunderground v.1.15,2013-09-02 10:18:00,
2013-09-02 05:25:00,58.5,56.2,31.76,NW,320,0.0,0.0,92,0.00,,,0.00,1223,Wunderground v.1.15,2013-09-02 10:25:00,
2013-09-02 05:31:00,58.6,56.3,31.76,NW,319,0.0,0.0,92,0.00,,,0.00,1229,Wunderground v.1.15,2013-09-02 10:31:00,
2013-09-02 05:37:00,58.5,56.2,31.76,NW,320,0.0,0.0,92,0.00,,,0.00,1225,Wunderground v.1.15,2013-09-02 10:37:00,
2013-09-02 05:43:00,58.5,56.2,31.76,NW,320,0.0,0.0,92,0.00,,,0.00,1223,Wunderground v.1.15,2013-09-02 10:43:00,
2013-09-02 05:48:00,58.4,56.1,31.76,NW,320,0.0,1.0,92,0.00,,,0.00,1229,Wunderground v.1.15,2013-09-02 10:48:00,
2013-09-02 05:55:00,58.4,56.1,31.76,NW,319,0.0,1.0,92,0.00,,,0.00,1223,Wunderground v.1.15,2013-09-02 10:55:00,
2013-09-02 06:01:00,58.3,56.0,31.76,NW,319,0.0,2.0,92,0.00,,,0.00,1206,Wunderground v.1.15,2013-09-02 11:01:00,
2013-09-02 06:07:00,58.1,55.8,31.76,NW,320,0.0,2.0,92,0.00,,,0.00,1190,Wunderground v.1.15,2013-09-02 11:07:00,
2013-09-02 06:13:00,57.9,55.6,31.76,NW,319,0.0,2.0,92,0.00,,,0.00,1174,Wunderground v.1.15,2013-09-02 11:13:00,
2013-09-02 06:19:00,57.8,55.5,31.76,NW,320,0.0,0.0,92,0.00,,,0.00,1158,Wunderground v.1.15,2013-09-02 11:19:00,
2013-09-02 06:25:00,57.7,55.4,31.76,NW,319,0.0,0.0,92,0.00,,,0.00,1132,Wunderground v.1.15,2013-09-02 11:25:00,
2013-09-02 06:30:00,57.7,55.7,31.76,NW,320,0.0,0.0,93,0.00,,,0.00,1109,Wunderground v.1.15,2013-09-02 11:30:00,
2013-09-02 06:37:00,57.5,55.2,31.76,NW,320,0.0,0.0,92,0.00,,,0.00,1085,Wunderground v.1.15,2013-09-02 11:37:00,
2013-09-02 06:43:00,57.4,55.1,31.76,NW,320,0.0,0.0,92,0.00,,,0.00,1051,Wunderground v.1.15,2013-09-02 11:43:00,
2013-09-02 06:49:00,57.2,55.2,31.76,NW,320,0.0,0.0,93,0.00,,,0.00,1025,Wunderground v.1.15,2013-09-02 11:49:00,
2013-09-02 06:55:00,57.0,55.0,31.76,NW,320,0.0,0.0,93,0.00,,,0.00,1005,Wunderground v.1.15,2013-09-02 11:55:00,
2013-09-02 07:01:00,56.9,54.9,31.76,NW,320,0.0,2.0,93,0.00,,,0.00,995,Wunderground v.1.15,2013-09-02 12:01:00,
2013-09-02 07:07:00,56.9,54.9,31.76,NW,319,0.0,2.0,93,0.00,,,0.00,986,Wunderground v.1.15,2013-09-02 12:07:00,
2013-09-02 07:12:00,57.0,55.0,31.76,NW,320,0.0,2.0,93,0.00,,,0.00,976,Wunderground v.1.15,2013-09-02 12:12:00,
2013-09-02 07:18:00,57.2,55.5,31.76,NW,320,0.0,0.0,94,0.00,,,0.00,967,Wunderground v.1.15,2013-09-02 12:18:00,
2013-09-02 07:25:00,57.5,55.8,31.76,NW,319,0.0,1.0,94,0.00,,,0.00,951,Wunderground v.1.15,2013-09-02 12:25:00,
2013-09-02 07:31:00,57.7,55.7,31.76,NW,319,0.0,0.0,93,0.00,,,0.00,954,Wunderground v.1.15,2013-09-02 12:31:00,
2013-09-02 07:37:00,58.0,56.3,31.76,NW,320,0.0,1.0,94,0.00,,,0.00,939,Wunderground v.1.15,2013-09-02 12:37:00,
2013-09-02 07:43:00,58.2,56.2,31.76,NW,317,1.0,3.0,93,0.00,,,0.00,923,Wunderground v.1.15,2013-09-02 12:43:00,
2013-09-02 07:49:00,57.9,55.9,24.94,NW,309,3.0,4.0,93,0.00,,,0.00,916,Wunderground v.1.15,2013-09-02 12:49:00,
2013-09-02 07:55:00,57.9,55.9,24.94,NW,310,3.0,4.0,93,0.00,,,0.00,904,Wunderground v.1.15,2013-09-02 12:55:00,
2013-09-02 08:01:00,58.2,56.5,24.94,NW,310,2.0,2.0,94,0.00,,,0.00,905,Wunderground v.1.15,2013-09-02 13:01:00,
2013-09-02 08:07:00,58.7,57.0,24.94,NW,310,1.0,2.0,94,0.00,,,0.00,912,Wunderground v.1.15,2013-09-02 13:07:00,
2013-09-02 08:13:00,59.3,57.6,24.94,NW,309,0.0,1.0,94,0.00,,,0.00,923,Wunderground v.1.15,2013-09-02 13:13:00,
2013-09-02 08:19:00,60.0,58.3,24.94,NW,310,0.0,1.0,94,0.00,,,0.00,946,Wunderground v.1.15,2013-09-02 13:19:00,
2013-09-02 08:25:00,61.2,59.5,24.94,NW,310,0.0,1.0,94,0.00,,,0.00,979,Wunderground v.1.15,2013-09-02 13:25:00,
2013-09-02 08:31:00,62.0,59.6,24.94,NW,311,0.0,1.0,92,0.00,,,0.00,1004,Wunderground v.1.15,2013-09-02 13:31:00,
2013-09-02 08:37:00,62.7,60.0,24.94,NW,313,0.0,1.0,91,0.00,,,0.00,1023,Wunderground v.1.15,2013-09-02 13:37:00,
2013-09-02 08:42:00,63.2,60.2,30.10,North,350,0.0,2.0,90,0.00,,,0.00,1046,Wunderground v.1.15,2013-09-02 13:42:00,
2013-09-02 08:49:00,63.5,60.2,30.10,NNE,32,1.0,1.0,89,0.00,,,0.00,1058,Wunderground v.1.15,2013-09-02 13:49:00,
2013-09-02 08:55:00,63.6,60.0,30.10,NE,43,2.0,3.0,88,0.00,,,0.00,1060,Wunderground v.1.15,2013-09-02 13:55:00,
2013-09-02 09:00:00,63.9,60.6,30.10,NE,41,2.0,5.0,89,0.00,,,0.00,1051,Wunderground v.1.15,2013-09-02 14:00:00,
2013-09-02 09:05:00,64.3,60.7,30.10,NE,41,1.0,5.0,88,0.00,,,0.00,1063,Wunderground v.1.15,2013-09-02 14:05:00,
2013-09-02 09:11:00,64.5,60.5,30.10,NE,56,2.0,5.0,87,0.00,,,0.00,1063,Wunderground v.1.15,2013-09-02 14:11:00,
2013-09-02 09:17:00,65.0,61.0,30.10,ENE,57,2.0,5.0,87,0.00,,,0.00,1085,Wunderground v.1.15,2013-09-02 14:17:00,
2013-09-02 09:23:00,65.4,61.1,30.10,NE,50,1.0,3.0,86,0.00,,,0.00,1102,Wunderground v.1.15,2013-09-02 14:23:00,
2013-09-02 09:29:00,65.7,61.1,30.10,NE,51,2.0,2.0,85,0.00,,,0.00,1113,Wunderground v.1.15,2013-09-02 14:29:00,
2013-09-02 09:35:00,66.1,61.1,30.10,ENE,57,2.0,4.0,84,0.00,,,0.00,1130,Wunderground v.1.15,2013-09-02 14:35:00,
2013-09-02 09:41:00,66.5,60.8,30.10,NE,50,2.0,2.0,82,0.00,,,0.00,1136,Wunderground v.1.15,2013-09-02 14:41:00,
2013-09-02 09:47:00,66.9,61.2,30.10,NE,46,2.0,2.0,82,0.00,,,0.00,1146,Wunderground v.1.15,2013-09-02 14:47:00,
2013-09-02 09:53:00,67.2,61.2,30.10,NE,46,2.0,2.0,81,0.00,,,0.00,1151,Wunderground v.1.15,2013-09-02 14:53:00,
2013-09-02 09:59:00,67.6,60.9,30.10,ENE,64,2.0,2.0,79,0.00,,,0.00,1181,Wunderground v.1.15,2013-09-02 14:59:00,
2013-09-02 10:05:00,68.0,61.6,31.28,ENE,76,2.0,5.0,80,0.00,,,0.00,1194,Wunderground v.1.15,2013-09-02 15:05:00,
2013-09-02 10:11:00,68.3,61.5,31.28,ENE,63,2.0,5.0,79,0.00,,,0.00,1222,Wunderground v.1.15,2013-09-02 15:11:00,
2013-09-02 10:17:00,68.6,61.5,31.28,NE,44,3.0,5.0,78,0.00,,,0.00,1227,Wunderground v.1.15,2013-09-02 15:17:00,
2013-09-02 10:23:00,68.8,61.7,31.28,NE,49,2.0,3.0,78,0.00,,,0.00,1218,Wunderground v.1.15,2013-09-02 15:23:00,
2013-09-02 10:29:00,69.3,61.8,31.28,NE,49,1.0,1.0,77,0.00,,,0.00,1248,Wunderground v.1.15,2013-09-02 15:29:00,
2013-09-02 10:35:00,69.7,61.8,31.28,NE,49,1.0,1.0,76,0.00,,,0.00,1271,Wunderground v.1.15,2013-09-02 15:35:00,
2013-09-02 10:41:00,70.0,61.3,31.28,NNW,337,2.0,4.0,74,0.00,,,0.00,1287,Wunderground v.1.15,2013-09-02 15:41:00,
2013-09-02 10:47:00,70.4,61.3,31.28,NE,46,2.0,4.0,73,0.00,,,0.00,1248,Wunderground v.1.15,2013-09-02 15:47:00,
2013-09-02 10:52:00,70.4,61.3,31.28,NNE,23,2.0,5.0,73,0.00,,,0.00,1238,Wunderground v.1.15,2013-09-02 15:52:00,
2013-09-02 10:58:00,71.0,61.5,31.28,NE,36,2.0,2.0,72,0.00,,,0.00,1236,Wunderground v.1.15,2013-09-02 15:58:00,
2013-09-02 11:05:00,71.3,61.4,31.28,NNW,348,1.0,5.0,71,0.00,,,0.00,1260,Wunderground v.1.15,2013-09-02 16:05:00,
2013-09-02 11:10:00,71.5,61.6,31.06,NE,34,1.0,4.0,71,0.00,,,0.00,1262,Wunderground v.1.15,2013-09-02 16:10:00,
2013-09-02 11:17:00,72.1,61.8,31.06,NE,51,2.0,7.0,70,0.00,,,0.00,1299,Wunderground v.1.15,2013-09-02 16:17:00,
2013-09-02 11:23:00,72.7,61.5,31.06,North,355,2.0,2.0,68,0.00,,,0.00,1320,Wunderground v.1.15,2013-09-02 16:23:00,
2013-09-02 11:29:00,73.2,61.2,31.06,NNE,29,2.0,2.0,66,0.00,,,0.00,1310,Wunderground v.1.15,2013-09-02 16:29:00,
2013-09-02 11:35:00,73.6,62.0,31.06,NE,44,2.0,2.0,67,0.00,,,0.00,1313,Wunderground v.1.15,2013-09-02 16:35:00,
2013-09-02 11:41:00,73.1,61.1,31.06,NW,314,2.0,4.0,66,0.00,,,0.00,1320,Wunderground v.1.15,2013-09-02 16:41:00,
2013-09-02 11:47:00,74.2,61.7,31.06,NNE,28,1.0,4.0,65,0.00,,,0.00,1341,Wunderground v.1.15,2013-09-02 16:47:00,
2013-09-02 11:53:00,74.6,60.7,31.06,NNW,345,2.0,2.0,62,0.00,,,0.00,1329,Wunderground v.1.15,2013-09-02 16:53:00,
2013-09-02 11:59:00,74.6,60.7,31.06,NE,46,3.0,3.0,62,0.00,,,0.00,1308,Wunderground v.1.15,2013-09-02 16:59:00,
2013-09-02 12:05:00,75.1,61.2,31.06,NNE,25,2.0,6.0,62,0.00,,,0.00,1339,Wunderground v.1.15,2013-09-02 17:05:00,
2013-09-02 12:10:00,75.5,60.6,31.06,WNW,292,2.0,6.0,60,0.00,,,0.00,1354,Wunderground v.1.15,2013-09-02 17:10:00,
2013-09-02 12:17:00,75.7,60.8,31.06,North,9,3.0,6.0,60,0.00,,,0.00,1361,Wunderground v.1.15,2013-09-02 17:17:00,
2013-09-02 12:22:00,75.8,60.4,31.71,North,11,3.0,5.0,59,0.00,,,0.00,1359,Wunderground v.1.15,2013-09-02 17:22:00,
2013-09-02 12:29:00,76.1,59.8,31.71,NW,323,3.0,5.0,57,0.00,,,0.00,1336,Wunderground v.1.15,2013-09-02 17:29:00,
2013-09-02 12:35:00,76.4,60.5,31.71,NNW,344,3.0,6.0,58,0.00,,,0.00,1331,Wunderground v.1.15,2013-09-02 17:35:00,
2013-09-02 12:41:00,76.7,60.8,31.71,NE,37,3.0,8.0,58,0.00,,,0.00,1346,Wunderground v.1.15,2013-09-02 17:41:00,
2013-09-02 12:47:00,76.5,60.6,31.71,ENE,61,3.0,11.0,58,0.00,,,0.00,1376,Wunderground v.1.15,2013-09-02 17:47:00,
2013-09-02 12:53:00,76.5,60.1,31.71,ENE,60,3.0,6.0,57,0.00,,,0.00,1392,Wunderground v.1.15,2013-09-02 17:53:00,
2013-09-02 12:59:00,76.0,60.6,31.71,NE,47,5.0,5.0,59,0.00,,,0.00,1403,Wunderground v.1.15,2013-09-02 17:59:00,
2013-09-02 13:05:00,76.2,59.9,31.71,ENE,78,4.0,7.0,57,0.00,,,0.00,1410,Wunderground v.1.15,2013-09-02 18:05:00,
2013-09-02 13:11:00,76.8,59.9,31.71,WNW,296,4.0,7.0,56,0.00,,,0.00,1422,Wunderground v.1.15,2013-09-02 18:11:00,
2013-09-02 13:17:00,77.4,60.5,32.47,NNW,329,4.0,7.0,56,0.00,,,0.00,1382,Wunderground v.1.15,2013-09-02 18:17:00,
2013-09-02 13:23:00,77.7,60.2,31.37,ENE,57,3.0,5.0,55,0.00,,,0.00,1394,Wunderground v.1.15,2013-09-02 18:23:00,
2013-09-02 13:29:00,77.9,59.9,31.37,NE,51,3.0,9.0,54,0.00,,,0.00,1419,Wunderground v.1.15,2013-09-02 18:29:00,
2013-09-02 13:35:00,78.2,59.7,31.37,North,9,3.0,9.0,53,0.00,,,0.00,1438,Wunderground v.1.15,2013-09-02 18:35:00,
2013-09-02 13:41:00,78.4,60.4,31.37,NE,41,2.0,5.0,54,0.00,,,0.00,1452,Wunderground v.1.15,2013-09-02 18:41:00,
2013-09-02 13:47:00,78.3,60.3,31.37,NW,304,2.0,5.0,54,0.00,,,0.00,1480,Wunderground v.1.15,2013-09-02 18:47:00,
2013-09-02 13:53:00,77.6,59.1,31.37,NNE,22,2.0,2.0,53,0.00,,,0.00,1440,Wunderground v.1.15,2013-09-02 18:53:00,
2013-09-02 13:59:00,78.2,60.2,31.37,North,360,2.0,2.0,54,0.00,,,0.00,1424,Wunderground v.1.15,2013-09-02 18:59:00,
2013-09-02 14:05:00,78.9,60.3,31.44,WNW,296,2.0,14.0,53,0.00,,,0.00,1459,Wunderground v.1.15,2013-09-02 19:05:00,
2013-09-02 14:11:00,79.1,60.0,31.44,West,277,3.0,14.0,52,0.00,,,0.00,1445,Wunderground v.1.15,2013-09-02 19:11:00,
2013-09-02 14:17:00,78.5,59.4,31.44,NW,321,4.0,14.0,52,0.00,,,0.00,1389,Wunderground v.1.15,2013-09-02 19:17:00,
2013-09-02 14:23:00,78.0,59.5,31.44,NE,48,4.0,6.0,53,0.00,,,0.00,1410,Wunderground v.1.15,2013-09-02 19:23:00,
2013-09-02 14:28:00,77.5,61.1,31.44,NE,38,3.0,3.0,57,0.00,,,0.00,1433,Wunderground v.1.15,2013-09-02 19:28:00,
2013-09-02 14:35:00,78.3,59.8,31.44,North,360,3.0,3.0,53,0.00,,,0.00,1475,Wunderground v.1.15,2013-09-02 19:35:00,
2013-09-02 14:40:00,78.5,60.5,31.44,NE,45,3.0,3.0,54,0.00,,,0.00,1466,Wunderground v.1.15,2013-09-02 19:40:00,
2013-09-02 14:47:00,78.8,59.1,31.44,NNE,32,3.0,3.0,51,0.00,,,0.00,1482,Wunderground v.1.15,2013-09-02 19:47:00,
2013-09-02 14:53:00,79.3,59.0,31.44,NW,306,2.0,5.0,50,0.00,,,0.00,,Wunderground v.1.15,2013-09-02 19:53:00,
2013-09-02 14:59:00,79.4,58.6,31.44,NW,321,4.0,4.0,49,0.00,,,0.00,1461,Wunderground v.1.15,2013-09-02 19:59:00,
2013-09-02 15:05:00,79.5,59.2,31.44,NNW,348,3.0,10.0,50,0.00,,,0.00,1447,Wunderground v.1.15,2013-09-02 20:05:00,
2013-09-02 15:10:00,79.6,59.3,31.44,North,11,2.0,10.0,50,0.00,,,0.00,1475,Wunderground v.1.15,2013-09-02 20:10:00,
2013-09-02 15:17:00,79.6,59.3,31.44,NNE,24,2.0,10.0,50,0.00,,,0.00,1468,Wunderground v.1.15,2013-09-02 20:17:00,
2013-09-02 15:23:00,79.9,60.2,31.44,NNW,331,3.0,9.0,51,0.00,,,0.00,1463,Wunderground v.1.15,2013-09-02 20:23:00,
2013-09-02 15:29:00,80.3,60.0,31.44,NE,49,2.0,2.0,50,0.00,,,0.00,1473,Wunderground v.1.15,2013-09-02 20:29:00,
2013-09-02 15:35:00,80.2,59.9,31.44,WNW,284,2.0,3.0,50,0.00,,,0.00,,Wunderground v.1.15,2013-09-02 20:35:00,
2013-09-02 15:41:00,80.0,59.7,31.44,North,10,3.0,8.0,50,0.00,,,0.00,,Wunderground v.1.15,2013-09-02 20:41:00,
2013-09-02 15:47:00,79.1,58.3,31.44,NE,34,4.0,8.0,49,0.00,,,0.00,1499,Wunderground v.1.15,2013-09-02 20:47:00,
2013-09-02 15:53:00,78.9,58.7,31.44,NE,34,4.0,9.0,50,0.00,,,0.00,1492,Wunderground v.1.15,2013-09-02 20:53:00,
2013-09-02 15:59:00,79.2,59.0,31.44,NE,49,3.0,3.0,50,0.00,,,0.00,,Wunderground v.1.15,2013-09-02 20:59:00,
2013-09-02 16:05:00,79.2,59.5,31.44,NE,38,3.0,11.0,51,0.00,,,0.00,,Wunderground v.1.15,2013-09-02 21:05:00,
2013-09-02 16:11:00,78.8,59.1,31.44,NE,50,4.0,4.0,51,0.00,,,0.00,,Wunderground v.1.15,2013-09-02 21:11:00,
2013-09-02 16:17:00,78.8,59.1,31.44,NE,51,3.0,4.0,51,0.00,,,0.00,,Wunderground v.1.15,2013-09-02 21:17:00,
2013-09-02 16:22:00,79.0,59.3,31.44,WNW,295,3.0,5.0,51,0.00,,,0.00,,Wunderground v.1.15,2013-09-02 21:22:00,
2013-09-02 16:28:00,79.5,59.2,31.44,North,360,3.0,3.0,50,0.00,,,0.00,1498,Wunderground v.1.15,2013-09-02 21:28:00,
2013-09-02 16:35:00,80.2,59.9,31.44,NNE,26,1.0,3.0,50,0.00,,,0.00,,Wunderground v.1.15,2013-09-02 21:35:00,
2013-09-02 16:41:00,80.4,60.1,31.44,NE,38,2.0,6.0,50,0.00,,,0.00,,Wunderground v.1.15,2013-09-02 21:41:00,
2013-09-02 16:47:00,79.3,60.1,31.44,NNW,340,4.0,6.0,52,0.00,,,0.00,,Wunderground v.1.15,2013-09-02 21:47:00,
2013-09-02 16:53:00,79.9,60.2,31.44,NNE,31,3.0,4.0,51,0.00,,,0.00,,Wunderground v.1.15,2013-09-02 21:53:00,
2013-09-02 16:58:00,80.0,59.1,31.44,North,11,1.0,1.0,49,0.00,,,0.00,,Wunderground v.1.15,2013-09-02 21:58:00,
2013-09-02 17:05:00,80.1,59.8,31.44,North,5,2.0,13.0,50,0.00,,,0.00,,Wunderground v.1.15,2013-09-02 22:05:00,
2013-09-02 17:10:00,79.9,60.2,31.44,North,9,2.0,13.0,51,0.00,,,0.00,,Wunderground v.1.15,2013-09-02 22:10:00,
2013-09-02 17:17:00,80.3,58.8,31.44,North,9,1.0,13.0,48,0.00,,,0.00,,Wunderground v.1.15,2013-09-02 22:17:00,
2013-09-02 17:22:00,80.3,58.2,31.44,WNW,300,1.0,4.0,47,0.00,,,0.00,,Wunderground v.1.15,2013-09-02 22:22:00,
2013-09-02 17:29:00,80.2,59.9,31.44,North,355,2.0,2.0,50,0.00,,,0.00,,Wunderground v.1.15,2013-09-02 22:29:00,
2013-09-02 17:35:00,80.1,59.8,31.44,North,355,2.0,3.0,50,0.00,,,0.00,,Wunderground v.1.15,2013-09-02 22:35:00,
2013-09-02 17:40:00,79.5,59.8,31.44,NE,48,3.0,4.0,51,0.00,,,0.00,,Wunderground v.1.15,2013-09-02 22:40:00,
2013-09-02 17:47:00,79.6,59.3,31.44,WNW,298,2.0,4.0,50,0.00,,,0.00,,Wunderground v.1.15,2013-09-02 22:47:00,
2013-09-02 17:53:00,79.9,60.2,31.44,NE,39,1.0,1.0,51,0.00,,,0.00,,Wunderground v.1.15,2013-09-02 22:53:00,
2013-09-02 17:59:00,79.5,59.8,31.44,NE,40,1.0,1.0,51,0.00,,,0.00,,Wunderground v.1.15,2013-09-02 22:59:00,
2013-09-02 18:05:00,79.3,61.2,31.44,NE,38,1.0,10.0,54,0.00,,,0.00,,Wunderground v.1.15,2013-09-02 23:05:00,
2013-09-02 18:11:00,79.2,60.1,31.44,NE,40,1.0,1.0,52,0.00,,,0.00,,Wunderground v.1.15,2013-09-02 23:11:00,
2013-09-02 18:17:00,79.1,60.0,31.44,NE,38,1.0,1.0,52,0.00,,,0.00,,Wunderground v.1.15,2013-09-02 23:17:00,
2013-09-02 18:23:00,79.1,60.0,31.44,NE,38,0.0,1.0,52,0.00,,,0.00,,Wunderground v.1.15,2013-09-02 23:23:00,
2013-09-02 18:29:00,78.8,58.6,31.44,NE,42,1.0,2.0,50,0.00,,,0.00,,Wunderground v.1.15,2013-09-02 23:29:00,
2013-09-02 18:35:00,78.5,58.9,31.44,NE,42,1.0,2.0,51,0.00,,,0.00,,Wunderground v.1.15,2013-09-02 23:35:00,
2013-09-02 18:40:00,78.5,57.7,31.44,NE,42,0.0,0.0,49,0.00,,,0.00,,Wunderground v.1.15,2013-09-02 23:40:00,
2013-09-02 18:47:00,78.8,58.6,31.44,NE,42,0.0,0.0,50,0.00,,,0.00,,Wunderground v.1.15,2013-09-02 23:47:00,
2013-09-02 18:52:00,78.8,58.6,31.44,NE,42,0.0,0.0,50,0.00,,,0.00,,Wunderground v.1.15,2013-09-02 23:52:00,
2013-09-02 18:58:00,78.6,60.6,31.44,NE,42,0.0,0.0,54,0.00,,,0.00,,Wunderground v.1.15,2013-09-02 23:58:00,
2013-09-02 19:05:00,78.4,60.4,31.44,NE,42,0.0,11.0,54,0.00,,,0.00,,Wunderground v.1.15,2013-09-03 00:05:00,
2013-09-02 19:10:00,78.4,60.4,31.44,NE,42,0.0,11.0,54,0.00,,,0.00,,Wunderground v.1.15,2013-09-03 00:10:00,
2013-09-02 19:17:00,78.3,59.8,31.44,NE,42,0.0,11.0,53,0.00,,,0.00,,Wunderground v.1.15,2013-09-03 00:17:00,
2013-09-02 19:23:00,78.2,60.7,31.44,NNE,24,0.0,1.0,55,0.00,,,0.00,,Wunderground v.1.15,2013-09-03 00:23:00,
2013-09-02 19:28:00,77.9,60.9,32.29,NNE,24,0.0,0.0,56,0.00,,,0.00,,Wunderground v.1.15,2013-09-03 00:28:00,
2013-09-02 19:35:00,77.4,61.0,32.29,NNE,24,0.0,0.0,57,0.00,,,0.00,,Wunderground v.1.15,2013-09-03 00:35:00,
2013-09-02 19:41:00,76.8,60.9,32.29,NNE,24,0.0,0.0,58,0.00,,,0.00,1489,Wunderground v.1.15,2013-09-03 00:41:00,
2013-09-02 19:47:00,76.4,61.0,32.29,NNE,24,0.0,0.0,59,0.00,,,0.00,1480,Wunderground v.1.15,2013-09-03 00:47:00,
2013-09-02 19:53:00,76.0,60.6,32.29,NNE,24,0.0,0.0,59,0.00,,,0.00,1468,Wunderground v.1.15,2013-09-03 00:53:00,
2013-09-02 19:59:00,75.4,61.0,32.29,NNE,24,0.0,0.0,61,0.00,,,0.00,1448,Wunderground v.1.15,2013-09-03 00:59:00,
2013-09-02 20:05:00,74.6,61.2,32.29,NNE,24,0.0,4.0,63,0.00,,,0.00,1412,Wunderground v.1.15,2013-09-03 01:05:00,
2013-09-02 20:10:00,73.9,60.5,32.29,NNE,24,0.0,4.0,63,0.00,,,0.00,1375,Wunderground v.1.15,2013-09-03 01:10:00,
2013-09-02 20:17:00,73.1,60.2,32.29,NNE,24,0.0,4.0,64,0.00,,,0.00,1346,Wunderground v.1.15,2013-09-03 01:17:00,
2013-09-02 20:23:00,72.5,60.1,32.29,NNE,24,0.0,0.0,65,0.00,,,0.00,1338,Wunderground v.1.15,2013-09-03 01:23:00,
2013-09-02 20:29:00,71.9,60.8,32.29,NNE,24,0.0,0.0,68,0.00,,,0.00,1339,Wunderground v.1.15,2013-09-03 01:29:00,
2013-09-02 20:35:00,71.2,60.9,32.29,NNE,26,0.0,3.0,70,0.00,,,0.00,1362,Wunderground v.1.15,2013-09-03 01:35:00,
2013-09-02 20:41:00,70.9,60.2,32.29,NNE,26,2.0,2.0,69,0.00,,,0.00,1387,Wunderground v.1.15,2013-09-03 01:41:00,
2013-09-02 20:47:00,70.4,60.5,32.29,NNE,28,2.0,3.0,71,0.00,,,0.00,1406,Wunderground v.1.15,2013-09-03 01:47:00,
2013-09-02 20:52:00,69.9,60.1,32.29,NE,34,3.0,4.0,71,0.00,,,0.00,1404,Wunderground v.1.15,2013-09-03 01:52:00,
2013-09-02 20:58:00,69.0,59.6,32.29,NE,34,2.0,2.0,72,0.00,,,0.00,1399,Wunderground v.1.15,2013-09-03 01:58:00,
2013-09-02 21:05:00,68.1,59.1,32.29,NE,34,1.0,3.0,73,0.00,,,0.00,1378,Wunderground v.1.15,2013-09-03 02:05:00,
2013-09-02 21:10:00,67.9,58.5,32.21,NE,36,2.0,3.0,72,0.00,,,0.00,1371,Wunderground v.1.15,2013-09-03 02:10:00,
2013-09-02 21:17:00,68.1,57.5,31.17,NE,40,4.0,4.0,69,0.00,,,0.00,1376,Wunderground v.1.15,2013-09-03 02:17:00,
2013-09-02 21:23:00,67.8,57.7,31.17,East,101,3.0,4.0,70,0.00,,,0.00,1382,Wunderground v.1.15,2013-09-03 02:23:00,
2013-09-02 21:29:00,66.7,57.8,31.17,East,95,2.0,2.0,73,0.00,,,0.00,1362,Wunderground v.1.15,2013-09-03 02:29:00,
2013-09-02 21:35:00,65.8,57.7,31.17,East,96,1.0,2.0,75,0.00,,,0.00,1338,Wunderground v.1.15,2013-09-03 02:35:00,
2013-09-02 21:41:00,65.2,57.8,31.17,East,96,1.0,1.0,77,0.00,,,0.00,1327,Wunderground v.1.15,2013-09-03 02:41:00,
2013-09-02 21:47:00,64.5,57.5,31.95,East,95,1.0,2.0,78,0.00,,,0.00,1308,Wunderground v.1.15,2013-09-03 02:47:00,
2013-09-02 21:53:00,64.4,57.7,31.50,East,95,1.0,2.0,79,0.00,,,0.00,1297,Wunderground v.1.15,2013-09-03 02:53:00,
2013-09-02 21:59:00,64.2,57.9,31.50,East,95,1.0,1.0,80,0.00,,,0.00,1296,Wunderground v.1.15,2013-09-03 02:59:00,
2013-09-02 22:05:00,64.4,56.7,31.50,East,90,1.0,5.0,76,0.00,,,0.00,1287,Wunderground v.1.15,2013-09-03 03:05:00,
2013-09-02 22:11:00,64.7,57.7,31.50,East,90,2.0,2.0,78,0.00,,,0.00,1306,Wunderground v.1.15,2013-09-03 03:11:00,
2013-09-02 22:17:00,63.6,57.3,31.50,East,90,1.0,2.0,80,0.00,,,0.00,1294,Wunderground v.1.15,2013-09-03 03:17:00,
2013-09-02 22:23:00,63.0,57.1,31.50,East,90,1.0,2.0,81,0.00,,,0.00,1285,Wunderground v.1.15,2013-09-03 03:23:00,
2013-09-02 22:29:00,62.6,56.7,31.50,East,90,1.0,2.0,81,0.00,,,0.00,1264,Wunderground v.1.15,2013-09-03 03:29:00,
2013-09-02 22:35:00,62.7,56.4,31.50,East,90,2.0,3.0,80,0.00,,,0.00,1267,Wunderground v.1.15,2013-09-03 03:35:00,
2013-09-02 22:40:00,62.6,56.7,31.50,East,90,1.0,2.0,81,0.00,,,0.00,1269,Wunderground v.1.15,2013-09-03 03:40:00,
2013-09-02 22:47:00,62.4,56.8,31.50,East,90,1.0,2.0,82,0.00,,,0.00,1262,Wunderground v.1.15,2013-09-03 03:47:00,
2013-09-02 22:53:00,61.8,56.6,31.50,East,90,1.0,1.0,83,0.00,,,0.00,1248,Wunderground v.1.15,2013-09-03 03:53:00,
2013-09-02 22:59:00,61.4,56.5,31.50,East,90,0.0,0.0,84,0.00,,,0.00,1245,Wunderground v.1.15,2013-09-03 03:59:00,
2013-09-02 23:01:00,61.3,56.4,31.50,East,90,0.0,5.0,84,0.00,,,0.00,1234,Wunderground v.1.15,2013-09-03 04:01:00,
2013-09-02 23:03:00,61.2,56.3,31.50,East,90,0.0,5.0,84,0.00,,,0.00,1241,Wunderground v.1.15,2013-09-03 04:03:00,
2013-09-02 23:05:00,61.2,56.3,31.50,East,90,0.0,5.0,84,0.00,,,0.00,1239,Wunderground v.1.15,2013-09-03 04:05:00,
2013-09-02 23:07:00,61.2,56.3,31.50,East,90,0.0,5.0,84,0.00,,,0.00,1232,Wunderground v.1.15,2013-09-03 04:07:00,
2013-09-02 23:11:00,61.2,56.3,31.50,East,90,0.0,5.0,84,0.00,,,0.00,1225,Wunderground v.1.15,2013-09-03 04:11:00,
2013-09-02 23:17:00,61.1,56.2,31.50,East,90,0.0,5.0,84,0.00,,,0.00,1232,Wunderground v.1.15,2013-09-03 04:17:00,
2013-09-02 23:23:00,61.1,56.2,31.50,East,90,0.0,2.0,84,0.00,,,0.00,1220,Wunderground v.1.15,2013-09-03 04:23:00,
2013-09-02 23:29:00,61.0,56.1,31.50,East,90,1.0,1.0,84,0.00,,,0.00,1225,Wunderground v.1.15,2013-09-03 04:29:00,
2013-09-02 23:35:00,60.9,55.7,31.50,East,90,0.0,1.0,83,0.00,,,0.00,1229,Wunderground v.1.15,2013-09-03 04:35:00,
2013-09-02 23:41:00,61.0,55.8,31.50,East,90,0.0,0.0,83,0.00,,,0.00,1220,Wunderground v.1.15,2013-09-03 04:41:00,
2013-09-02 23:47:00,60.9,55.7,31.50,East,90,0.0,0.0,83,0.00,,,0.00,1215,Wunderground v.1.15,2013-09-03 04:47:00,
2013-09-02 23:53:00,61.1,55.6,31.50,East,90,0.0,1.0,82,0.00,,,0.00,1220,Wunderground v.1.15,2013-09-03 04:53:00,
2013-09-02 23:59:00,61.1,55.9,31.50,East,90,0.0,0.0,83,0.00,,,0.00,1225,Wunderground v.1.15,2013-09-03 04:59:00,